Tracking 35274 objects as of 12-Sep-2026
HD Live streaming from Space Station
objects crossing your sky now

COSMOS 886 DEB

Track COSMOS 886 DEB now!
10-day predictions


NORAD ID: 9964
Int'l Code: 1976-126BE
Launch date: December 27, 1976
Source: Commonwealth of Independent States (former USSR) (CIS)
Launch site: TYURATAM MISSILE AND SPACE COMPLEX (TTMTR)

Note: This is SATELLITE DEBRIS
Your satellite tracking list
Your tracking list is empty




NASA's NSSDC Master Catalog

Two Line Element Set (TLE):
1 09964U 76126BE  26254.71250466  .00001451  00000-0  71408-3 0  9994
2 09964  65.7752 353.8735 0813699 250.4577 100.6895 13.15221317336964
Source of the keplerian elements: AFSPC